Theta_e
324 324 324 323 323 324 323 323 323 323 323 324 324 324 325 324 324 324 323 323 323 323 322 322 322 322 322 323 322 322 322 320 319 319 320 322 322 319 318 318 316 317 317 318 319 318 318 318 318 317 317 317 317 317 317 317 316 316 315 316 317 318 319 320 320 320 319 319 319 319 318 318 317 315 313 311 310 309 310 313 314 315 316 317 318
325 325 325 325 325 325 325 325 325 324 324 325 324 324 325 324 324 324 324 324 323 323 322 323 322 322 322 323 322 322 322 321 320 321 322 322 320 319 318 318 317 318 318 318 318 318 318 317 316 315 315 315 316 316 315 315 315 313 312 314 315 316 317 319 318 318 317 317 315 314 311 309 307 305 303 301 300 300 301 302 303 304 304 305 306
326 326 326 326 326 326 326 326 326 325 324 325 324 324 325 324 324 324 324 324 324 323 322 323 323 322 322 322 322 321 322 322 322 322 322 321 319 319 319 319 319 319 318 317 317 316 315 314 313 313 313 314 313 313 312 311 311 311 312 315 315 314 313 313 313 313 311 309 306 303 301 299 299 298 298 297 297 297 297 297 297 297 297 297 297
325 325 326 327 326 326 326 326 326 325 324 325 324 324 325 324 324 324 324 324 323 323 322 323 322 322 323 322 322 322 322 322 323 322 322 321 320 320 320 319 318 317 316 316 315 313 312 311 311 311 310 310 310 309 308 308 308 308 310 311 308 305 304 303 303 303 301 299 298 297 297 297 297 297 297 297 297 297 297 297 297 297 297 297 297
324 324 324 325 326 325 326 326 325 325 325 324 324 324 324 324 324 323 323 323 323 322 322 323 322 322 323 322 322 322 322 322 323 322 322 322 321 320 319 317 316 315 314 313 311 310 309 308 308 307 307 306 306 305 304 304 303 303 302 301 299 298 298 298 297 297 297 297 297 297 297 297 297 297 297 297 297 297 297 297 297 297 297 296 297
323 324 323 324 325 325 325 325 325 325 324 324 324 324 323 323 323 323 322 322 322 322 322 322 322 323 323 323 323 322 322 322 322 321 320 321 321 319 317 315 314 313 310 309 308 307 305 304 304 303 303 302 302 301 300 300 299 298 298 297 297 297 297 297 297 297 297 297 297 297 297 297 296 296 296 296 296 296 296 296 296 296 296 296 296
323 324 324 324 324 325 325 325 325 324 323 323 323 323 323 323 323 323 323 323 323 323 322 322 323 323 323 322 323 322 322 323 323 321 319 319 320 318 315 313 311 309 307 306 304 302 301 301 301 300 300 300 299 299 298 298 297 297 297 297 297 297 297 297 297 296 296 296 296 296 296 296 296 296 296 296 296 296 296 296 296 296 296 296 296
323 324 324 324 323 324 325 325 324 323 323 324 322 322 323 323 323 322 322 323 323 323 322 323 323 322 322 323 323 322 322 322 322 319 317 318 318 315 312 309 307 305 304 303 301 300 300 300 299 299 299 298 298 298 297 297 297 296 296 296 296 296 296 296 296 296 296 296 296 296 296 296 296 296 296 296 296 296 296 296 296 296 296 296 296
324 324 324 324 324 324 325 325 324 323 323 324 323 323 323 323 323 323 322 322 323 323 322 323 323 322 322 323 322 322 323 322 320 317 316 316 315 312 309 305 303 302 301 301 300 299 299 299 299 298 298 298 297 297 297 296 296 296 296 296 296 296 296 296 296 296 296 296 296 296 296 296 296 296 296 296 296 296 296 295 295 295 295 295 295
324 324 324 324 324 324 325 326 325 324 324 324 323 324 324 323 323 323 323 322 322 322 322 323 322 321 321 322 323 322 322 321 317 315 315 313 311 308 305 302 301 301 300 300 299 299 298 298 298 298 297 297 297 296 296 296 296 296 296 296 296 296 296 296 296 296 296 296 296 296 295 296 296 296 296 296 295 295 295 295 295 295 295 295 295
324 324 324 323 323 323 325 326 325 324 324 324 324 324 324 323 323 323 323 322 322 321 321 322 321 321 320 321 322 322 320 318 316 314 312 310 308 305 301 300 300 300 299 299 299 298 298 298 297 297 297 296 296 296 296 296 296 296 296 296 295 295 295 295 296 296 295 295 295 295 295 296 295 295 295 295 295 295 295 295 295 295 295 295 295
324 324 323 322 323 324 324 325 325 325 324 324 324 324 324 324 324 324 324 322 322 322 322 321 320 321 321 321 320 319 317 315 313 312 309 307 305 302 300 300 299 299 299 298 298 298 298 297 297 297 296 296 296 296 296 296 296 296 296 295 295 295 295 295 295 295 295 295 295 295 295 295 295 295 295 295 295 295 295 295 295 295 295 295 295
323 323 323 323 324 324 324 325 325 324 325 325 324 324 324 324 323 324 324 321 321 323 323 321 320 321 321 322 321 316 314 313 312 310 307 305 303 301 300 299 299 298 298 298 298 298 297 297 297 296 296 296 296 296 296 296 296 296 295 295 295 295 295 295 295 295 295 295 295 295 295 295 295 295 295 295 295 295 295 295 295 295 295 295 294
323 323 323 325 326 326 325 325 325 325 325 325 324 324 324 324 323 323 323 322 321 322 321 319 320 322 320 321 323 318 312 311 312 310 306 304 302 300 299 298 298 298 298 298 298 297 297 297 296 296 296 296 296 296 296 295 295 295 295 295 295 295 295 295 295 295 295 295 295 295 295 295 295 295 295 295 295 295 295 295 295 295 295 294 294
324 324 325 326 327 326 325 324 325 325 325 324 324 324 324 323 323 322 322 322 321 321 319 318 319 321 320 321 323 320 317 314 314 311 305 303 301 300 299 298 298 298 298 298 297 297 297 296 296 296 296 296 295 295 295 295 295 295 295 295 295 295 295 295 295 295 295 295 295 295 295 295 295 295 295 295 295 295 294 295 294 294 294 294 294
327 327 327 327 326 325 324 325 325 325 325 324 324 324 324 323 322 321 320 321 320 319 319 319 319 319 321 322 319 319 322 320 316 311 304 302 301 299 299 298 298 298 297 297 297 297 297 296 296 296 296 295 295 295 295 295 295 295 295 295 295 295 295 295 295 295 295 295 295 294 294 295 295 295 295 295 295 294 294 294 294 294 294 293 293
328 328 327 327 326 324 324 325 326 325 325 324 325 324 323 323 323 321 319 318 319 320 318 318 319 317 318 320 319 321 321 316 315 314 307 301 299 299 298 298 298 297 297 297 297 297 296 296 296 295 295 295 295 295 295 295 294 294 295 294 294 294 294 295 294 295 294 294 294 294 294 294 294 294 294 294 294 294 294 293 293 293 292 293 294
328 328 328 327 326 325 324 325 325 325 324 324 325 323 321 323 325 323 320 317 318 320 320 319 318 315 314 315 317 322 318 311 315 317 310 303 299 298 298 297 298 297 297 297 297 297 296 296 295 295 295 295 295 294 294 294 294 294 294 294 294 294 294 294 294 294 294 294 294 294 294 294 294 294 294 293 293 293 293 293 292 292 293 295 296
327 328 327 326 327 326 326 326 325 324 324 325 324 320 319 324 326 324 321 318 318 320 321 320 319 315 312 311 311 314 312 308 311 313 310 306 302 299 298 297 298 297 297 297 297 297 296 295 295 295 295 295 294 294 294 294 294 294 294 294 294 294 294 294 294 294 294 294 294 294 294 294 293 293 293 292 292 292 292 291 292 294 296 296 295
327 327 325 325 326 326 326 326 325 325 324 323 322 321 320 324 326 323 321 320 319 319 321 322 320 316 311 309 309 308 307 305 305 305 305 304 302 300 299 299 299 298 297 296 296 296 296 295 295 295 295 294 294 294 294 294 294 294 294 294 294 294 294 294 294 293 293 293 293 293 293 293 293 292 292 292 291 291 290 291 293 295 296 296 294
328 327 325 325 326 326 326 326 325 326 324 321 322 323 320 321 323 322 321 320 318 319 323 323 319 315 310 308 307 306 304 302 301 300 300 300 302 301 299 300 300 298 297 296 296 296 296 295 295 295 294 294 294 294 294 294 294 293 293 293 293 293 293 293 293 293 293 293 293 292 292 292 292 291 291 291 290 290 291 292 294 295 295 294 293
327 327 325 325 326 325 325 324 323 324 322 321 324 324 320 319 320 320 320 321 320 321 324 321 316 313 309 307 306 305 303 301 299 299 298 298 300 298 298 299 298 297 296 296 296 295 295 295 294 294 294 294 294 293 293 293 293 293 293 293 293 293 293 293 293 292 292 292 292 292 291 291 291 290 290 290 290 291 292 293 294 294 294 293 293
325 326 324 324 324 322 322 323 322 321 320 321 325 324 319 320 322 321 322 322 319 319 321 318 314 310 307 305 305 303 302 300 298 298 298 298 298 298 298 297 296 296 295 295 294 295 294 294 294 293 293 293 293 293 293 293 293 293 293 293 293 292 292 292 292 292 291 291 291 291 291 290 290 290 289 289 290 291 292 292 293 293 293 293 293
324 325 324 324 323 322 324 325 322 321 320 321 324 323 319 320 323 324 324 322 317 316 317 316 312 308 305 305 304 302 300 299 298 297 297 297 298 298 297 296 296 296 295 294 294 294 294 294 293 293 293 293 293 293 293 293 293 292 292 292 292 292 292 292 292 291 291 291 291 291 290 290 290 289 289 290 290 291 290 291 291 292 292 293 293
322 324 324 323 323 324 327 326 322 320 320 319 321 322 320 321 324 325 323 320 316 315 315 313 309 306 305 304 303 301 299 298 298 297 298 298 298 298 297 296 296 295 296 295 294 294 294 293 293 293 293 293 293 292 292 292 292 292 292 292 292 292 292 292 291 291 291 290 290 290 290 289 289 289 289 289 289 289 289 289 290 291 292 292 292
321 323 324 323 323 323 323 323 322 322 321 319 320 320 319 321 324 324 321 317 314 315 313 308 306 305 305 303 302 300 299 298 298 298 299 299 299 298 296 296 295 296 296 296 294 295 294 293 293 293 292 292 292 292 292 292 292 292 292 292 292 292 292 291 291 290 290 289 289 289 289 288 288 289 288 288 288 288 288 288 289 290 290 291 291
320 323 325 324 322 322 322 322 323 323 322 320 320 320 320 321 322 321 319 315 314 313 309 306 306 306 305 303 301 300 299 298 299 300 300 299 298 297 296 296 295 295 296 296 295 295 294 293 292 292 292 292 292 292 292 292 292 292 292 291 291 291 291 290 290 290 289 289 289 289 288 288 288 288 288 287 287 288 288 287 288 289 289 290 290
320 324 326 326 323 323 323 322 323 323 323 321 321 320 319 319 319 318 317 315 313 310 306 305 306 305 304 303 301 300 298 299 300 301 300 299 298 297 296 295 294 294 294 294 295 295 294 293 292 292 292 292 292 292 291 291 291 291 291 291 291 291 290 290 289 289 289 288 288 288 288 288 288 288 288 287 287 287 287 287 288 288 289 289 289
319 324 327 327 325 323 323 324 324 324 323 322 321 320 317 317 316 316 317 314 310 307 306 306 306 305 303 301 300 299 299 300 301 301 299 298 297 297 296 295 294 294 294 293 294 294 293 292 292 292 292 291 291 291 291 291 291 291 291 291 291 290 290 290 289 289 288 288 288 288 288 288 288 288 287 287 286 286 286 286 287 288 288 288 289
319 324 327 327 326 326 324 324 324 324 323 322 322 319 315 315 316 316 315 312 308 306 305 305 305 303 302 301 300 299 300 302 301 300 298 298 297 296 295 295 294 294 294 293 293 293 293 292 292 292 291 292 292 291 291 291 291 291 291 291 290 290 290 290 289 288 288 288 288 288 288 288 288 287 287 287 286 286 285 286 286 286 286 287 287
320 325 327 327 326 327 327 324 323 324 323 322 322 319 315 315 316 314 312 309 306 305 305 305 304 302 302 300 299 299 301 302 300 298 298 297 296 296 295 294 294 294 293 293 293 293 292 292 292 292 292 292 292 291 291 291 291 291 291 291 290 290 290 290 289 288 288 288 288 288 288 288 287 287 287 286 286 285 285 285 286 286 286 286 287
321 326 328 327 325 327 328 326 325 324 322 322 321 318 315 315 314 312 310 307 305 305 305 304 303 302 301 299 299 301 302 301 299 298 297 297 296 295 295 294 294 293 293 293 293 293 292 292 292 292 292 292 292 291 291 291 291 291 291 290 290 290 290 290 288 288 288 288 288 288 288 288 287 287 286 286 285 285 285 285 285 286 286 287 287
323 326 328 327 326 326 326 326 327 324 322 321 320 316 314 314 312 310 308 305 304 305 304 303 302 301 300 299 300 302 301 299 298 297 297 296 295 295 294 294 293 293 293 293 292 292 292 292 292 292 292 292 291 291 291 291 291 291 291 290 290 290 290 289 288 288 288 287 288 288 288 287 287 286 286 285 285 285 285 285 285 286 286 287 288
324 327 327 327 327 326 326 327 327 324 321 320 318 315 313 312 311 309 306 304 304 304 302 302 301 300 299 299 300 301 300 298 297 297 296 296 295 294 294 294 293 293 293 292 292 292 292 292 291 291 291 291 291 291 291 291 291 291 291 290 290 290 289 289 288 288 288 287 287 287 287 287 287 286 285 285 285 285 285 285 285 286 287 288 288
326 327 327 326 327 327 327 328 326 323 321 320 318 314 312 310 310 307 304 303 303 303 302 301 300 299 298 299 301 300 298 297 297 296 296 295 294 294 294 293 293 293 292 292 292 292 292 291 291 291 291 291 291 291 291 291 291 291 290 290 290 289 289 289 288 287 287 287 287 287 287 287 286 285 285 285 284 285 285 285 285 286 287 288 289
327 327 326 326 327 327 328 327 324 322 322 321 319 314 311 310 309 305 302 302 302 301 301 300 299 298 298 299 300 298 297 297 296 296 295 295 294 294 293 293 293 292 292 292 292 291 291 291 291 291 291 291 291 291 291 291 291 291 290 290 290 289 289 289 288 288 287 287 287 287 287 287 286 285 284 284 284 284 284 285 286 287 288 288 289
327 328 326 326 327 328 328 325 322 323 323 321 319 315 311 309 307 303 301 302 301 300 299 298 297 297 298 299 298 297 297 296 295 295 295 294 294 293 293 293 292 292 292 292 291 291 291 291 291 291 291 291 290 290 290 291 291 291 290 290 289 289 289 288 288 288 287 287 287 287 287 287 286 285 284 284 284 284 284 285 286 287 288 288 288
328 328 326 326 327 327 327 324 322 322 320 318 318 315 310 308 305 301 300 300 299 298 298 297 297 297 298 298 297 296 296 295 295 295 294 294 294 293 293 292 292 292 292 291 291 291 291 291 291 291 290 290 290 290 290 290 290 290 290 290 290 289 289 288 288 287 287 287 286 286 287 286 286 285 284 284 284 284 284 285 286 287 287 288 288
328 327 326 327 328 327 325 323 322 320 318 317 316 313 309 307 304 300 299 299 298 297 297 297 296 297 297 297 296 296 295 295 294 294 294 294 293 293 292 292 292 291 291 291 291 291 291 291 290 290 290 290 290 290 290 290 290 289 289 290 290 289 289 288 287 287 287 287 286 286 286 286 286 285 284 284 284 284 284 285 286 287 287 287 288
328 327 326 327 327 327 324 323 322 321 319 319 315 311 309 306 302 299 298 298 297 297 296 296 296 296 296 295 295 295 294 294 294 294 294 293 293 292 292 291 291 291 291 291 291 290 290 290 290 290 290 290 289 289 290 290 290 289 288 288 288 288 288 288 287 287 286 286 286 286 286 286 286 285 284 284 283 283 284 285 286 287 287 287 287
328 327 327 327 327 326 324 322 323 321 321 320 315 309 308 305 300 298 298 297 297 296 296 296 296 296 295 295 295 294 294 294 294 294 293 293 292 292 292 291 291 291 291 291 290 290 290 290 290 290 289 289 289 289 289 289 288 288 288 287 287 287 287 287 287 287 286 286 286 286 286 286 285 285 284 283 283 283 284 284 285 287 287 286 287
327 326 327 327 327 325 322 321 322 320 321 320 314 309 308 304 299 298 297 297 296 296 295 295 295 295 295 295 295 294 294 294 293 293 293 292 292 292 291 291 291 291 290 290 290 290 290 289 289 289 289 289 289 288 288 288 287 287 287 287 286 286 286 287 287 287 286 285 286 286 286 285 285 285 284 283 283 283 283 284 285 286 286 286 286
327 326 326 325 324 323 320 319 321 320 321 319 312 308 307 302 298 297 297 297 296 295 295 295 295 295 294 294 294 294 293 293 293 293 293 292 292 291 291 291 291 290 290 290 290 289 289 289 289 289 289 289 288 288 287 287 287 287 286 286 286 286 286 286 286 286 286 285 285 286 286 285 284 284 284 283 283 283 283 283 284 285 285 285 286
323 323 324 324 323 321 320 320 320 320 321 318 311 308 305 300 297 297 296 296 295 295 295 294 294 294 294 294 294 293 293 293 293 293 292 292 291 291 291 290 290 290 290 289 289 289 289 289 289 289 288 288 288 287 287 286 286 286 286 285 285 285 285 285 285 286 285 285 285 286 286 285 284 284 284 283 282 283 283 283 283 284 285 285 286
320 322 323 323 322 321 321 321 320 319 318 314 310 307 303 298 296 296 295 295 295 294 294 294 294 294 294 294 293 293 293 293 293 293 292 291 291 291 290 290 290 290 289 289 289 289 289 289 289 288 288 288 287 286 286 286 286 285 285 285 285 285 285 285 285 285 285 285 284 285 285 284 283 283 284 283 283 282 282 283 283 283 284 285 285
321 322 322 322 322 321 320 319 319 318 316 311 308 306 301 296 296 295 295 294 294 294 294 293 293 294 293 293 293 293 294 294 294 293 292 291 291 290 290 290 290 289 289 289 289 288 288 288 288 288 287 287 286 286 286 285 285 285 285 285 285 285 285 285 285 285 285 284 283 283 284 285 283 282 283 283 283 282 282 282 283 283 283 284 285
320 320 321 322 321 319 318 317 318 319 315 310 308 304 298 296 295 295 294 294 293 293 293 293 293 293 293 293 293 294 294 295 294 292 291 291 290 290 290 290 289 289 289 289 288 288 288 288 288 287 287 286 286 285 285 285 285 285 285 285 285 285 285 285 285 285 285 284 282 282 283 284 283 281 282 283 283 282 282 282 282 282 283 284 284
320 320 321 320 318 318 318 319 319 319 314 309 306 301 297 295 295 294 294 293 293 293 293 293 293 293 293 293 293 294 295 295 293 292 291 291 290 290 290 289 289 289 289 288 288 288 288 288 287 287 286 286 286 285 285 285 285 285 284 284 284 284 284 285 285 285 284 283 282 281 282 283 282 281 281 282 282 282 282 281 281 282 282 283 283
320 320 319 319 318 318 319 319 319 316 311 307 304 299 296 295 295 294 294 293 293 293 293 293 293 292 292 293 294 295 296 295 293 292 291 291 290 290 290 289 289 289 288 288 288 288 287 287 287 287 286 286 285 285 285 285 284 284 284 284 284 284 284 284 285 285 285 283 281 280 280 281 281 281 281 281 282 282 282 281 281 281 282 282 282
319 319 318 318 318 318 318 319 317 313 309 306 302 297 296 295 294 294 294 293 293 293 292 292 292 292 292 293 295 296 295 294 293 292 292 292 291 290 290 289 289 289 288 288 288 287 287 287 287 286 286 285 285 285 284 284 284 284 284 284 284 284 284 284 284 285 285 283 281 280 280 280 280 280 280 281 282 282 281 280 280 281 281 281 281
318 318 318 317 317 317 317 317 314 310 307 304 300 297 295 295 294 294 293 293 293 292 292 292 292 292 292 294 295 296 295 294 294 294 294 293 292 290 289 289 289 288 288 287 287 287 287 287 286 286 285 285 285 284 284 284 284 284 284 284 284 284 284 284 284 284 284 283 281 280 280 280 279 278 279 280 281 281 281 280 280 280 280 280 280
Wind_Speed
6 5 5 6 6 6 6 6 6 6 6 5 6 5 4 6 5 5 4 3 3 4 4 5 6 5 5 6 6 6 6 7 7 6 7 6 6 8 10 11 11 11 12 13 13 14 15 16 17 17 17 17 17 17 17 18 17 16 16 15 15 15 16 18 19 19 20 21 21 22 23 24 25 25 26 26 27 28 27 27 28 29 30 31 32
7 7 7 7 7 7 6 7 5 5 5 4 5 4 3 5 5 4 4 4 4 4 5 5 7 7 5 6 7 6 5 5 6 5 6 6 7 10 11 11 12 12 13 13 14 15 15 16 16 16 16 16 16 17 17 17 16 16 15 15 14 14 14 15 17 18 19 19 20 21 22 22 23 23 24 25 26 27 27 27 27 28 28 29 30
7 7 7 6 6 5 5 5 4 4 4 4 5 5 5 6 6 6 6 6 5 5 7 6 6 7 6 7 7 6 4 4 4 5 5 6 9 10 10 11 12 13 14 14 14 14 15 15 15 14 14 14 15 15 15 14 14 15 15 15 15 13 12 13 15 16 16 18 19 20 20 21 22 22 23 24 25 26 26 27 27 28 28 29 29
9 9 7 5 5 5 5 5 4 5 5 5 6 7 8 9 10 10 9 8 7 6 7 6 6 6 6 7 6 5 5 4 5 6 6 7 10 10 9 11 12 12 12 13 13 14 14 13 12 12 12 12 12 12 13 13 14 14 15 15 15 14 14 14 15 16 17 18 19 20 21 22 23 23 24 25 26 27 28 28 29 30 31 31 32
12 12 11 8 8 7 5 5 6 6 6 7 8 8 8 9 10 11 9 8 8 6 6 6 6 6 5 6 5 4 5 5 5 6 6 8 10 9 10 12 12 11 11 11 12 12 12 11 11 11 11 11 11 11 12 13 13 14 14 14 15 15 15 16 16 18 19 20 21 22 23 24 25 26 27 28 29 30 31 32 33 34 34 35 35
14 14 14 12 11 9 7 6 6 7 7 7 6 5 5 6 6 7 7 6 6 6 5 4 5 5 5 5 5 4 5 6 6 6 6 7 8 9 10 10 10 11 11 11 11 11 11 11 11 10 10 10 11 12 12 13 13 14 14 14 15 15 16 16 17 19 20 21 22 23 24 25 26 27 28 30 31 32 33 34 35 36 37 38 39
16 16 16 14 12 9 7 6 7 8 7 6 6 3 4 5 5 4 5 5 4 5 5 4 4 5 5 4 4 4 5 6 6 6 7 7 6 8 9 9 9 9 9 10 11 11 11 10 10 10 10 11 11 12 12 12 13 13 14 14 15 15 16 17 18 20 21 22 23 24 25 26 28 29 30 32 33 35 36 38 39 40 41 42 43
18 17 17 15 13 9 7 6 9 10 6 6 7 4 3 5 5 4 3 3 4 4 4 4 5 6 5 5 5 4 4 4 5 5 6 6 6 7 7 8 8 8 9 9 10 10 10 10 10 10 11 11 12 12 12 12 13 13 14 15 15 17 18 19 20 21 22 24 25 26 28 30 31 33 35 37 39 40 42 43 45 46 47 48 49
19 19 18 16 13 11 9 7 10 10 6 7 6 4 4 5 5 6 4 2 2 3 3 4 6 7 5 4 4 4 3 4 4 4 5 4 4 4 6 7 8 8 9 9 9 9 9 10 10 10 11 11 11 11 11 12 12 14 15 16 17 19 20 21 23 24 25 26 28 30 31 33 35 37 40 42 43 45 46 47 49 50 51 52 53
21 20 19 18 15 13 11 9 11 10 8 8 7 5 6 6 5 5 6 5 4 4 5 5 7 7 5 4 4 3 2 3 2 3 3 2 2 4 6 7 8 8 8 8 9 9 9 9 9 10 10 10 11 11 11 12 14 15 17 18 19 21 22 23 24 26 27 29 31 33 35 37 39 41 43 44 45 46 48 49 50 52 53 54 55
22 21 21 20 16 13 11 10 11 11 10 9 9 7 8 8 6 5 7 8 7 6 6 7 8 6 5 4 3 3 2 1 1 3 3 2 3 5 7 7 8 8 8 9 9 9 8 8 8 9 10 10 10 11 12 14 16 17 18 19 20 22 23 25 27 29 31 32 34 36 37 39 41 43 44 45 46 47 48 50 51 53 55 56 57
23 22 22 21 17 14 13 12 12 12 11 11 10 9 9 9 8 7 8 8 6 7 7 7 7 6 4 4 3 2 1 2 3 3 3 3 4 5 7 7 8 7 8 9 9 9 8 7 8 8 9 10 11 12 14 15 17 18 20 21 22 24 26 28 30 32 33 35 36 37 39 41 42 43 45 46 47 48 50 52 53 55 56 57 58
24 23 23 21 18 15 15 14 14 14 13 11 10 10 10 11 11 9 9 7 4 6 7 6 6 4 3 3 3 1 3 4 4 3 3 3 4 5 6 7 7 7 7 8 9 8 7 7 7 8 10 11 13 14 15 16 18 20 22 23 25 26 28 30 32 33 34 35 37 38 40 42 43 44 45 47 48 49 51 52 54 55 56 57 58
25 24 22 20 17 16 16 15 15 15 14 12 11 11 12 13 11 9 10 8 6 7 8 5 2 2 3 1 0 0 2 4 3 2 3 3 3 4 6 7 7 7 7 8 9 8 7 7 8 10 11 12 14 15 17 20 21 23 25 26 27 28 29 31 33 34 35 36 38 40 41 42 43 45 46 47 48 50 51 52 53 54 55 56 56
26 24 22 19 17 16 16 15 15 16 16 14 13 14 13 13 12 10 10 10 10 10 8 6 2 2 2 1 3 4 2 2 3 1 1 3 3 4 5 7 7 7 8 8 8 7 7 7 9 11 12 14 15 17 20 22 25 26 27 28 29 30 31 32 34 35 36 37 39 40 41 42 44 45 46 47 48 49 50 51 52 53 54 55 55
25 23 21 20 20 19 17 16 16 15 15 15 14 13 11 12 12 10 10 10 10 10 7 7 5 3 2 3 4 5 5 4 4 2 1 3 3 3 5 7 7 7 8 8 8 7 7 8 10 11 13 15 17 20 22 24 26 28 29 29 30 31 32 33 34 35 37 38 40 41 42 43 44 45 46 47 48 49 50 51 52 54 54 54 54
24 23 22 22 21 20 19 16 15 15 15 16 15 13 11 12 12 10 9 8 8 9 8 8 9 6 4 4 5 5 4 5 6 4 0 1 2 3 6 7 7 7 8 8 8 7 7 9 11 12 15 17 19 22 24 26 27 29 30 30 31 32 33 33 35 36 38 39 40 41 42 43 44 46 47 48 48 49 50 52 53 54 54 52 50
24 23 23 23 21 21 20 17 16 16 16 17 17 16 14 14 14 11 10 9 10 12 11 9 10 8 6 5 7 9 6 5 6 5 2 2 3 4 6 7 7 8 8 8 8 7 8 9 11 13 16 18 20 22 24 26 27 28 29 30 31 32 33 34 36 37 38 39 40 41 43 44 45 46 47 48 49 50 51 53 53 51 49 47 45
25 24 24 24 23 22 20 18 17 18 18 19 19 17 15 15 16 13 12 11 13 14 13 12 11 9 8 7 8 9 8 6 6 6 6 1 3 5 6 8 8 8 8 8 8 7 9 10 12 14 17 19 21 22 24 25 26 27 28 29 31 32 33 35 36 38 39 40 41 42 43 44 45 46 47 48 49 51 52 52 50 46 44 44 45
26 26 27 25 25 23 21 19 19 20 21 20 18 17 15 16 16 15 14 13 13 15 15 14 13 9 7 8 8 8 7 6 6 6 6 5 3 4 6 7 8 9 8 8 7 7 9 10 11 13 16 19 20 22 24 25 26 27 29 30 31 33 34 35 37 38 39 40 41 42 43 44 45 46 48 49 50 51 51 48 44 43 42 44 47
28 27 27 27 27 26 24 24 22 23 22 19 17 17 16 16 17 17 17 15 14 16 16 16 13 9 9 9 9 8 7 6 6 5 4 4 3 3 6 7 8 9 8 9 8 8 9 11 12 14 16 19 21 23 24 26 27 28 29 31 32 33 34 35 36 37 38 40 41 42 44 45 46 47 48 49 49 48 47 44 41 41 43 46 49
31 28 27 27 28 28 27 26 26 25 23 20 19 19 17 17 18 18 19 18 17 18 18 16 13 11 11 10 9 8 7 6 5 3 2 2 2 3 6 8 8 8 7 8 7 7 10 11 12 15 18 20 22 25 26 27 29 29 30 31 32 33 34 35 36 37 39 40 41 43 44 45 46 47 48 48 47 43 42 42 42 42 43 46 49
33 30 29 28 29 28 26 25 25 25 24 22 22 22 20 19 20 20 20 20 21 21 20 18 15 13 12 11 9 8 6 6 4 2 1 0 2 4 6 8 8 7 7 7 5 7 10 12 13 16 19 21 23 26 27 28 29 30 30 31 32 33 34 35 36 38 39 40 41 43 44 46 47 47 48 46 43 40 41 42 42 43 44 46 47
33 31 31 31 30 28 26 26 26 25 24 24 25 25 22 21 22 22 21 21 22 21 19 18 16 14 13 11 9 7 6 5 4 2 1 2 3 5 6 8 9 8 7 7 6 7 10 13 16 18 20 22 24 27 27 28 29 30 31 31 32 33 34 35 37 38 39 40 42 43 45 46 46 46 46 44 41 41 43 44 43 43 44 45 45
35 33 33 33 31 29 29 31 28 24 25 26 27 26 23 22 23 24 23 22 22 20 18 17 16 15 13 11 9 8 6 5 4 2 2 3 4 6 7 8 9 8 7 8 9 10 12 15 18 20 22 24 26 27 28 29 29 30 31 32 32 34 34 36 37 38 40 41 42 44 45 46 46 46 45 44 43 44 45 46 45 44 44 44 45
37 35 34 34 33 31 32 31 27 24 25 27 27 25 24 24 25 26 25 22 21 20 18 18 17 15 13 11 10 8 7 5 4 2 2 4 6 7 7 9 10 8 7 10 11 11 12 16 21 22 23 25 26 27 28 29 29 31 32 32 33 34 35 36 37 39 40 41 43 45 46 46 45 45 46 47 47 46 47 48 46 44 44 43 44
37 36 35 34 33 31 30 29 28 27 27 26 26 26 26 27 28 28 25 21 20 20 19 19 17 15 13 12 10 9 7 5 3 3 4 5 7 8 8 8 9 7 5 8 11 12 13 17 21 23 23 25 26 27 28 29 30 31 32 33 34 35 36 37 38 40 41 42 43 45 45 45 45 45 47 50 49 46 47 48 46 43 42 42 44
38 36 34 34 33 31 31 31 30 29 28 27 27 28 30 31 32 29 24 21 21 21 21 20 17 16 14 12 11 9 7 5 3 4 5 6 7 7 8 8 7 6 6 7 8 12 16 19 22 24 25 26 27 28 29 30 31 32 33 35 36 37 37 37 39 41 42 42 43 44 45 46 46 47 49 50 48 46 46 46 43 41 41 41 44
37 37 35 33 33 32 32 31 30 30 29 28 28 28 30 32 32 28 25 23 23 23 22 20 18 16 14 13 11 9 7 5 4 5 6 7 8 8 8 8 8 9 9 9 10 12 17 20 22 24 25 27 28 29 30 31 32 33 34 36 37 37 38 38 39 41 42 42 43 44 45 46 47 48 49 49 47 45 44 43 41 40 40 40 44
36 36 35 33 33 33 31 30 32 32 30 30 30 28 26 26 27 27 26 25 25 25 23 21 19 17 15 13 11 9 7 5 5 6 7 7 8 8 8 9 9 10 11 12 13 14 16 19 21 23 25 27 29 30 31 32 33 33 35 37 37 37 38 39 40 41 42 42 43 44 45 46 47 48 48 48 46 44 43 42 40 40 40 40 42
35 35 35 34 34 34 32 31 32 33 33 33 32 27 24 24 26 27 27 27 27 25 23 21 19 17 15 13 11 9 7 6 6 6 7 7 8 8 9 9 10 12 12 13 14 14 17 20 20 22 25 27 29 31 31 32 33 34 35 37 37 38 38 39 39 40 42 42 43 44 45 46 47 47 47 47 45 43 42 41 40 40 40 40 41
35 35 35 35 34 34 34 32 32 33 34 35 33 28 26 27 28 28 28 28 28 26 23 21 19 17 15 13 11 9 8 7 7 7 7 8 8 9 10 11 11 12 13 15 16 16 17 20 21 23 25 27 29 30 31 32 32 34 35 36 37 38 38 39 39 40 41 42 43 45 45 46 47 47 46 45 42 41 40 38 38 38 39 40 41
35 36 36 35 34 34 34 34 33 33 34 35 32 28 28 29 28 28 29 29 28 25 23 21 19 17 15 13 11 10 9 8 7 7 7 8 9 9 10 12 12 13 14 15 17 18 18 19 21 23 25 27 29 29 31 32 33 35 35 36 37 37 38 39 40 41 42 43 44 45 45 46 47 46 45 42 39 38 37 35 35 37 39 40 40
35 36 35 35 34 34 34 35 34 32 33 33 29 26 29 30 29 30 30 29 28 25 24 22 20 18 16 14 12 10 9 8 7 7 8 8 9 10 11 12 13 14 15 16 18 20 20 20 21 23 25 27 29 30 31 33 34 36 36 36 37 37 38 39 40 42 43 43 43 44 45 47 46 46 44 40 36 35 34 34 34 36 38 38 39
35 34 35 35 34 35 36 35 32 32 33 31 27 26 30 31 31 32 31 29 27 26 24 22 20 18 16 14 12 11 10 9 8 8 8 8 9 10 11 12 13 14 15 16 18 19 21 21 22 24 25 27 29 30 32 33 34 36 36 36 37 37 38 39 40 42 43 43 43 44 45 47 46 44 42 38 35 33 32 33 34 35 35 36 38
34 34 35 35 34 36 37 34 31 32 35 31 27 26 31 33 32 31 31 29 27 26 24 22 19 18 16 14 13 11 10 9 8 8 8 8 10 10 11 12 13 14 15 16 17 19 21 22 23 24 26 27 29 30 32 33 34 35 36 36 37 38 38 38 40 41 42 43 44 44 46 47 45 41 38 34 32 31 32 32 33 33 32 34 37
34 35 35 34 35 37 37 33 30 33 35 33 30 28 32 34 32 31 31 29 28 26 24 22 20 18 16 14 13 11 10 9 8 8 8 9 10 11 11 12 13 14 15 16 17 18 20 22 24 24 25 27 28 30 32 33 35 35 36 36 36 38 39 39 40 40 41 43 44 45 47 46 44 41 35 31 29 29 31 32 32 31 31 34 36
34 35 35 35 36 37 35 31 29 32 33 32 31 31 33 34 32 32 31 29 28 26 24 22 21 18 16 14 12 11 10 9 8 8 9 10 10 11 11 12 13 14 15 16 17 18 20 22 23 24 25 26 28 30 31 33 35 36 37 38 37 38 40 40 41 40 41 43 44 46 47 46 44 41 35 29 28 28 29 30 29 28 29 33 36
34 34 34 35 36 36 33 30 30 31 29 27 28 32 34 34 33 32 31 29 28 26 24 22 20 18 16 14 13 12 10 9 8 9 9 10 10 11 11 12 13 13 15 16 17 18 20 21 23 24 24 25 27 29 31 32 33 34 37 39 39 39 40 41 42 42 42 43 44 45 46 45 43 40 34 28 26 27 28 28 27 26 28 32 34
33 33 33 34 37 36 30 28 32 32 26 24 27 34 35 33 33 32 31 29 28 26 24 22 20 18 16 14 13 12 10 9 9 9 9 10 10 11 11 12 12 13 15 16 17 19 20 21 22 23 24 25 27 29 30 31 32 33 34 37 39 40 42 42 41 42 43 44 45 44 45 45 43 40 35 29 27 27 27 26 25 23 26 30 33
32 33 34 36 39 36 28 27 34 34 26 24 28 34 35 33 33 32 31 30 28 26 24 22 20 19 16 15 13 12 10 9 9 9 9 9 10 11 11 11 12 13 15 16 18 19 20 20 21 22 23 25 26 28 29 30 32 33 33 35 37 39 41 42 41 40 42 44 45 44 44 44 44 41 36 31 29 28 27 26 24 22 23 28 31
32 32 35 39 39 33 26 28 35 33 24 25 29 34 34 32 33 32 31 30 28 25 24 22 20 19 16 15 14 12 10 9 9 9 9 9 10 11 11 11 12 14 15 16 17 19 19 20 21 22 23 24 25 27 28 29 30 31 33 34 36 38 40 42 42 40 40 43 45 44 43 43 43 41 37 33 30 28 27 27 24 21 21 25 29
32 32 36 38 34 28 24 27 33 32 26 27 31 34 34 32 32 32 31 29 27 25 24 22 20 18 16 15 14 12 11 9 9 8 8 9 10 10 11 12 13 14 15 16 17 18 19 20 20 21 23 24 24 25 26 27 28 30 32 33 35 37 38 40 42 41 40 41 44 45 43 42 42 41 38 34 30 27 26 26 24 20 19 22 26
30 33 36 34 29 26 25 27 32 32 29 30 34 35 34 33 32 31 30 28 27 26 24 22 20 18 17 15 14 12 11 9 8 8 8 9 9 10 11 12 13 14 15 16 17 18 19 20 20 21 22 23 23 23 24 26 28 29 30 31 32 35 36 37 39 39 39 39 42 44 42 40 42 41 38 35 31 27 25 25 23 19 17 18 23
30 32 33 31 27 26 28 30 31 29 28 32 35 35 33 33 32 31 29 27 26 25 23 21 20 18 17 16 14 12 11 9 7 8 8 8 9 10 11 12 13 15 16 16 18 18 19 20 20 20 21 22 22 22 23 25 27 28 29 30 31 33 35 35 36 37 37 37 40 42 41 40 41 41 38 35 32 27 25 25 23 20 16 14 19
28 29 30 29 28 28 29 31 30 27 28 33 36 35 34 34 33 32 30 28 26 24 23 21 20 18 17 16 14 12 10 8 7 8 7 8 9 10 11 12 14 15 16 17 18 18 19 20 20 19 20 20 21 21 22 24 26 27 28 30 31 32 34 34 34 34 34 34 35 37 39 40 41 40 38 35 32 28 25 24 24 21 16 12 13
28 29 30 30 29 28 29 29 28 27 29 34 36 36 35 34 34 33 31 29 26 25 23 22 20 19 17 16 14 12 9 8 7 7 7 8 9 10 11 12 14 15 16 17 18 18 19 19 19 19 19 20 20 21 22 23 25 26 27 28 29 31 33 33 34 33 32 32 31 31 36 40 40 39 37 34 32 29 25 23 24 22 16 11 10
29 29 30 29 26 27 28 29 28 28 31 35 37 37 36 36 35 34 31 29 27 25 24 22 21 20 18 16 14 11 9 8 7 7 8 8 9 10 11 13 15 15 16 17 18 18 18 18 19 19 19 19 19 20 21 23 24 25 26 26 28 30 32 33 34 32 32 31 27 26 33 39 38 37 37 34 32 29 26 25 25 22 17 11 10
27 29 29 28 26 28 29 29 29 29 32 36 38 37 37 36 35 33 31 30 28 26 24 23 21 20 18 16 13 11 10 8 7 7 8 9 10 11 13 14 15 16 16 17 18 18 18 18 18 18 18 18 19 20 21 22 23 24 25 26 27 29 30 32 33 33 32 29 25 26 32 36 36 36 36 35 31 27 26 27 24 21 18 12 9
27 29 29 28 28 29 29 29 29 30 34 37 38 38 37 36 34 33 31 30 28 26 25 23 22 20 18 16 13 11 10 9 8 8 8 10 11 13 14 14 15 16 17 17 18 18 18 18 18 18 18 18 19 19 20 21 22 23 24 25 26 28 29 30 32 33 32 27 24 28 33 33 33 33 35 36 34 27 25 26 25 21 19 15 10
29 30 30 30 30 30 30 30 30 32 35 37 38 38 37 36 34 33 31 30 28 27 25 24 22 21 19 16 14 12 11 9 9 9 10 11 13 14 15 16 16 17 17 17 17 17 18 17 17 17 18 18 19 19 20 21 21 22 23 24 25 26 27 28 29 31 31 27 25 29 32 32 31 31 31 34 35 31 27 26 24 21 20 19 13
Wind_Direction
199 206 214 220 223 229 240 243 247 251 255 264 270 272 279 285 286 294 300 299 311 309 305 316 320 319 318 314 318 324 320 321 331 344 352 350 343 352 353 344 347 351 351 351 349 348 346 345 344 344 343 342 342 342 343 342 341 343 341 336 333 334 335 333 332 331 328 329 328 327 327 327 328 329 330 331 331 332 332 332 329 326 324 323 321
214 221 228 234 233 236 249 253 256 259 254 260 274 275 285 297 297 303 305 302 306 299 300 313 312 318 323 311 316 329 330 330 337 347 350 352 358 358 356 354 357 357 354 351 348 346 345 344 345 344 344 344 343 344 346 345 347 349 350 350 346 341 341 338 334 332 332 333 334 334 335 337 339 340 340 342 342 342 341 340 339 337 335 332 330
222 226 230 235 240 239 244 253 256 262 265 268 278 286 289 291 289 288 290 293 300 294 295 305 314 326 325 313 329 344 342 337 342 346 347 360 4 359 356 355 353 350 349 348 347 347 346 347 349 349 350 351 350 351 352 352 355 359 5 10 7 359 354 350 344 343 345 345 346 347 348 349 348 347 345 345 344 342 341 339 338 337 336 334 332
238 240 238 229 239 242 239 252 259 264 273 270 273 284 291 296 292 291 293 289 291 289 300 313 316 325 319 318 344 355 346 347 352 344 341 358 2 357 351 346 346 348 349 350 351 352 354 356 360 2 2 2 0 359 360 1 4 10 16 15 11 9 6 4 359 357 356 354 353 352 351 350 348 347 345 343 342 340 339 337 335 334 333 332 330
250 253 253 250 250 248 242 250 260 265 268 270 279 288 294 299 297 299 302 294 297 302 309 316 310 312 314 323 347 350 341 349 346 333 339 354 353 352 346 344 349 355 359 1 1 3 8 11 13 14 11 9 9 8 9 10 12 16 18 13 9 9 6 4 1 358 356 353 352 351 349 348 346 345 343 342 340 339 338 336 335 334 333 331 329
254 259 260 257 254 252 251 254 262 268 272 278 284 289 286 289 291 297 300 295 304 309 303 301 299 301 307 319 335 335 341 351 337 328 349 355 348 348 345 351 360 2 9 17 19 19 18 18 17 15 13 13 14 16 18 18 18 18 15 12 8 6 3 359 357 354 353 351 350 349 347 346 345 343 342 341 339 338 337 335 334 333 332 330 329
253 258 259 255 252 254 259 257 256 258 265 275 274 269 272 282 286 276 280 291 300 302 300 303 299 293 299 308 314 323 346 351 330 330 356 358 350 347 348 6 18 18 22 27 28 25 19 17 16 15 16 18 21 22 23 21 20 18 14 10 6 2 359 356 354 353 351 350 349 348 347 346 345 343 341 340 338 337 336 335 334 333 332 330 329
252 253 255 254 252 250 250 245 253 260 262 270 276 272 257 275 293 287 270 272 285 291 297 304 298 291 297 301 305 329 358 342 318 335 2 4 346 344 4 29 35 36 36 33 31 26 20 18 17 19 21 22 24 25 24 22 19 16 11 7 3 359 357 355 353 352 350 350 349 348 347 346 345 343 342 340 339 338 337 336 336 335 334 333 331
251 251 251 251 250 250 246 239 249 262 261 263 274 272 255 267 291 301 298 277 283 295 302 300 289 283 283 289 304 333 349 314 314 358 15 9 344 355 36 48 45 42 42 40 35 28 22 20 19 20 22 23 26 26 22 19 14 10 7 3 0 357 355 353 351 350 350 349 349 348 347 346 345 343 342 341 339 339 338 338 337 336 335 333 332
250 251 251 249 249 249 246 244 250 256 253 257 263 254 259 270 267 278 292 295 285 274 277 278 273 272 275 290 306 316 305 291 323 32 40 28 26 53 57 53 49 46 45 44 37 30 24 20 20 21 22 23 23 19 13 10 8 5 3 0 357 355 352 351 350 350 350 350 349 348 347 346 344 343 341 340 339 338 338 337 336 335 333 332 331
250 250 251 251 250 248 244 246 252 253 248 250 255 259 271 280 277 270 281 290 292 285 276 268 272 286 299 303 307 296 275 252 60 61 74 82 81 73 61 52 51 47 42 41 35 29 25 22 22 22 21 18 14 10 6 5 4 1 358 356 354 352 351 351 351 351 351 350 349 348 346 344 342 341 340 339 338 337 337 336 335 334 332 331 330
250 250 252 253 250 246 245 247 249 251 250 247 247 257 265 271 273 270 275 281 294 301 286 277 295 318 324 314 316 315 233 140 95 86 89 87 88 74 58 52 50 46 40 35 31 27 27 29 27 25 18 9 5 3 1 0 358 356 354 353 352 352 351 352 352 352 351 349 347 346 344 342 341 339 339 338 337 336 336 335 334 333 331 330 329
253 252 254 257 253 245 245 247 250 252 253 249 245 248 251 258 262 261 271 268 261 279 274 287 326 338 335 318 316 359 118 119 96 96 93 85 88 69 51 50 48 43 39 30 27 27 29 33 28 22 16 6 1 357 355 353 352 352 352 351 352 352 352 352 352 350 348 346 345 343 342 341 339 339 338 337 336 335 334 333 331 330 329 328 326
255 255 255 255 251 244 245 247 250 249 249 249 246 245 245 255 259 255 265 257 231 245 261 282 332 314 319 2 224 284 104 101 97 100 89 88 88 65 44 45 46 39 35 29 25 25 27 28 20 14 10 3 359 355 351 350 350 351 352 352 352 352 352 352 350 348 346 344 343 342 341 339 338 337 336 335 334 332 331 330 328 327 326 325 324
255 256 254 249 246 246 248 247 245 245 248 250 247 249 247 249 252 248 251 250 244 244 253 268 245 248 303 154 173 198 190 105 96 98 78 98 88 58 40 39 43 40 35 30 25 23 21 17 11 7 3 358 356 352 351 351 350 351 351 351 351 351 352 350 348 345 344 343 341 340 338 337 336 335 334 333 331 329 328 326 325 325 325 324 324
251 251 251 249 248 249 248 244 244 247 248 248 247 251 249 245 249 248 243 242 248 245 242 261 254 214 202 208 208 196 192 179 163 179 52 97 97 49 29 32 41 40 35 31 25 19 14 8 3 0 357 355 354 352 352 352 351 350 350 350 350 350 349 347 345 343 342 341 339 338 336 335 335 333 332 330 328 327 326 326 326 326 326 326 325
244 245 248 250 250 249 246 242 242 243 242 243 242 240 239 245 251 252 250 239 236 242 243 255 256 237 210 204 203 191 181 173 166 171 259 81 104 53 25 25 32 33 31 29 24 17 7 1 358 356 356 355 355 353 352 351 350 349 348 348 348 348 346 344 343 341 340 339 337 336 335 334 333 332 331 329 328 328 328 329 329 329 329 328 326
240 239 241 246 251 252 248 241 238 237 238 239 237 233 231 241 245 245 252 239 228 243 252 256 256 251 243 224 199 189 182 166 161 168 193 312 355 23 22 20 21 22 25 25 23 14 4 1 358 356 356 356 354 352 351 350 349 347 346 346 346 345 344 343 342 340 339 337 336 334 333 333 333 332 331 331 330 331 331 332 332 331 329 327 326
239 235 237 243 249 252 251 246 240 237 236 236 238 236 232 240 244 244 251 245 235 245 253 254 258 259 247 230 200 188 187 176 168 169 172 209 323 345 6 14 11 12 18 21 20 12 0 359 359 355 353 352 351 350 348 346 346 345 345 344 344 344 343 343 341 339 338 336 335 334 334 335 335 334 334 333 334 334 335 334 333 330 327 324 325
240 238 240 242 245 246 246 246 241 238 238 239 244 244 238 240 241 240 249 251 241 242 247 248 253 255 226 206 192 186 184 181 178 173 171 179 240 310 346 358 356 359 6 12 15 9 357 352 353 352 349 347 346 346 344 343 345 345 344 345 344 344 344 343 341 339 337 336 336 336 337 337 337 336 336 336 337 337 337 335 331 327 324 324 324
241 240 240 239 240 240 238 239 238 238 241 244 249 246 242 241 240 241 248 249 242 236 236 240 243 237 210 196 192 188 182 182 183 177 171 172 211 290 333 341 344 350 354 359 4 1 352 348 348 349 348 345 343 344 345 345 346 346 346 346 345 346 345 343 341 339 338 338 338 338 339 339 339 339 339 339 339 338 337 334 329 325 324 325 325
240 238 238 234 235 236 235 236 238 238 239 243 246 244 242 240 240 244 245 245 245 235 228 235 241 230 211 197 195 193 185 183 184 181 175 165 216 293 335 345 348 349 351 355 359 356 349 345 347 348 347 346 345 346 347 347 347 347 346 346 346 347 345 343 341 340 340 340 340 341 342 342 342 341 341 341 340 338 335 331 327 326 325 325 325
241 239 237 233 233 236 236 238 240 239 239 240 242 241 240 240 241 244 245 245 244 233 227 237 239 222 204 197 199 198 189 186 189 195 204 263 312 329 341 347 348 345 352 4 1 353 347 345 350 351 348 347 347 348 348 348 347 346 345 346 347 346 345 344 343 342 342 341 342 343 344 344 343 343 343 342 340 337 334 331 328 327 325 325 324
241 238 235 234 235 238 240 242 242 239 237 238 239 239 240 242 241 241 245 248 243 234 234 237 227 207 198 200 202 197 194 196 198 212 258 317 330 340 341 344 347 339 339 354 356 349 345 345 350 350 348 348 348 348 348 347 346 345 344 346 346 346 346 346 345 344 342 342 343 345 346 346 345 345 345 343 339 337 336 334 331 328 326 325 323
238 234 234 235 235 234 236 241 243 240 236 237 239 239 240 241 237 238 246 249 242 238 238 226 207 196 197 202 201 196 198 202 205 226 278 314 325 338 341 341 346 341 325 333 347 350 344 342 344 347 347 348 349 348 346 346 345 344 344 345 346 346 347 348 346 344 342 343 347 349 349 348 347 347 346 344 341 339 338 336 332 329 327 325 323
238 235 234 235 235 234 235 240 244 242 239 240 241 239 237 235 234 239 245 243 236 234 226 208 196 195 198 201 202 200 201 206 214 244 293 315 325 336 339 337 345 350 330 322 335 344 342 339 339 343 346 347 348 346 345 345 344 344 344 345 346 347 349 350 348 345 345 348 351 352 351 350 348 348 347 346 344 341 339 337 334 330 327 326 325
238 236 235 235 237 236 236 240 242 243 243 242 240 237 234 233 235 239 239 235 230 223 209 198 196 198 200 202 202 203 206 211 226 269 302 314 323 329 333 339 347 351 329 315 322 328 334 337 336 339 344 345 344 344 344 343 343 344 345 345 347 349 352 353 351 348 349 352 354 354 352 350 349 349 348 347 345 341 339 338 335 331 329 328 327
237 234 233 235 238 235 234 238 241 243 244 240 236 237 237 236 237 236 234 230 223 210 199 197 198 199 202 203 203 206 208 214 241 278 298 308 316 321 327 336 342 339 331 322 318 317 327 336 337 337 342 343 342 344 344 343 345 346 345 346 349 352 354 354 352 350 350 353 355 355 353 351 350 349 347 347 345 342 340 338 335 332 331 331 328
236 232 230 232 238 238 235 236 240 243 243 239 239 241 240 239 237 233 229 223 211 201 198 199 199 201 203 204 206 207 209 222 252 278 293 301 309 316 322 328 332 333 331 329 323 319 327 336 338 337 340 342 341 342 343 343 346 347 345 347 351 353 354 354 352 350 350 354 356 355 353 352 350 348 347 347 345 343 342 339 336 334 334 332 328
235 232 229 228 233 238 238 235 236 240 240 239 242 245 241 237 229 221 217 210 202 199 199 199 200 202 203 205 207 207 212 232 254 274 286 296 306 313 318 323 326 326 327 326 326 325 327 333 336 335 337 339 339 339 342 344 345 346 346 348 351 352 352 352 352 351 350 353 356 355 354 351 350 349 348 347 345 345 343 340 337 336 336 335 331
234 230 228 227 229 233 238 238 234 235 236 237 243 247 239 228 216 209 205 200 198 199 199 200 202 203 204 206 208 208 219 239 254 268 282 294 303 309 314 319 320 320 322 323 323 324 326 330 334 335 335 338 338 338 341 343 344 345 346 347 349 350 349 350 352 351 349 352 356 356 354 351 350 350 349 347 346 346 344 341 340 339 338 337 335
234 230 228 229 229 229 234 237 234 234 235 237 244 244 231 219 209 202 199 197 198 199 200 203 203 204 206 206 207 214 226 240 252 267 280 291 301 307 311 314 316 317 319 320 320 322 326 329 333 335 335 336 337 337 339 342 342 343 346 346 347 347 347 348 351 351 350 353 357 357 354 351 351 351 350 348 348 347 344 343 343 342 340 338 338
235 230 229 229 230 230 232 235 235 236 235 236 243 239 225 216 206 199 198 197 198 199 202 204 204 205 207 206 210 219 229 241 252 267 280 289 298 305 308 310 313 315 317 319 319 322 327 331 333 335 335 335 335 336 338 340 341 343 345 345 345 345 347 348 350 352 352 354 358 358 353 352 353 352 350 349 350 350 347 345 344 343 342 341 344
234 231 230 229 230 232 233 232 235 237 234 237 242 234 220 213 204 199 198 197 199 200 203 204 205 207 207 207 214 222 231 241 252 265 278 288 295 302 305 307 311 314 316 318 319 322 327 332 333 334 334 334 333 335 338 340 341 342 343 344 343 345 348 350 351 352 352 353 358 358 354 353 354 353 351 350 353 354 351 348 347 347 347 349 353
233 231 230 228 229 231 230 230 235 235 232 236 241 230 216 208 201 198 197 198 200 202 205 206 206 207 207 209 216 225 233 241 252 264 275 287 293 299 302 305 310 313 315 318 320 324 327 330 333 333 334 334 334 336 339 341 341 341 341 342 343 345 349 352 352 352 351 351 355 358 355 354 355 354 352 351 353 356 354 353 353 354 355 358 1
231 230 229 228 228 228 228 232 236 230 226 234 242 230 212 203 199 198 198 199 202 204 206 207 207 208 209 212 219 226 234 240 251 263 274 285 290 295 300 305 309 311 314 318 321 324 326 329 332 332 333 334 335 337 339 340 340 339 339 341 343 345 348 352 352 351 351 350 353 357 356 355 357 357 355 354 356 359 358 359 360 359 1 4 2
230 229 228 228 227 226 230 236 233 224 224 234 241 229 210 201 199 199 199 201 203 205 207 207 207 208 210 215 221 227 234 240 250 263 274 282 288 294 300 304 307 310 314 318 321 324 325 327 329 331 333 335 337 338 338 338 337 336 337 340 343 345 347 351 353 351 349 348 352 357 356 355 357 357 357 357 359 1 360 2 4 0 3 6 2
229 229 230 229 225 226 233 235 227 225 231 237 237 225 208 200 199 199 201 203 204 206 207 207 207 209 212 217 223 228 234 240 250 263 272 280 288 294 299 303 306 310 315 319 321 323 324 325 327 329 333 336 337 337 337 337 337 336 337 338 343 346 347 350 353 351 349 348 351 355 354 354 356 356 356 356 359 1 359 2 4 1 5 9 2
228 230 230 228 227 230 235 234 227 227 234 240 233 216 205 200 200 200 202 204 206 207 209 208 208 210 214 218 223 228 233 239 250 263 272 279 287 294 298 302 307 312 316 319 321 322 322 324 326 328 333 336 336 336 335 336 337 338 338 338 341 345 347 351 352 351 349 348 350 353 352 353 357 357 356 359 2 1 358 1 3 360 5 9 3
228 231 231 229 230 231 232 232 227 222 228 240 228 209 202 202 202 202 204 205 207 209 209 209 209 212 215 219 223 227 230 238 250 261 271 280 287 294 298 302 309 313 316 318 319 320 321 323 325 328 332 335 335 333 333 334 336 339 341 340 342 344 347 350 352 350 347 346 348 351 350 351 356 357 355 359 5 3 358 360 360 358 3 6 3
229 231 232 230 228 226 227 230 224 217 224 240 227 208 203 203 203 204 206 206 208 210 210 210 211 213 216 219 223 226 229 238 250 260 271 281 288 294 299 305 310 314 316 318 317 317 320 322 325 328 331 333 333 332 332 335 338 340 342 342 343 345 345 347 350 351 347 344 345 348 350 351 354 357 355 358 4 3 358 358 358 359 4 4 1
229 230 233 229 223 221 227 230 222 218 227 238 225 209 205 205 206 207 207 208 209 210 211 212 213 214 216 219 221 224 228 236 247 259 273 283 289 296 302 307 312 314 316 315 315 316 319 322 325 327 329 331 331 332 333 335 338 340 342 344 344 345 345 345 348 351 348 343 340 345 351 352 352 355 356 358 2 1 357 357 355 357 5 4 359
230 232 232 225 219 221 229 229 225 226 235 237 222 209 206 207 209 210 211 210 210 210 212 214 215 216 216 218 220 223 228 235 246 261 275 284 291 300 305 310 313 314 314 313 314 316 318 321 325 326 326 328 330 332 333 335 337 340 342 345 344 344 345 344 345 348 348 341 337 341 350 352 350 352 356 357 360 360 357 355 352 351 1 5 1
233 236 229 219 217 224 227 226 225 228 235 232 218 207 206 208 210 213 214 213 212 212 213 213 215 216 217 218 220 221 225 233 246 263 276 285 295 303 306 310 312 312 312 312 313 315 317 320 323 324 324 325 328 331 332 334 337 340 342 344 343 342 343 343 342 344 344 339 335 340 347 349 347 350 355 356 357 359 356 352 352 351 355 4 4
231 231 224 218 220 224 224 227 229 230 230 223 213 207 207 208 209 212 213 213 214 214 215 216 216 216 217 218 220 220 224 233 248 264 277 288 298 303 306 309 310 311 311 311 312 314 316 318 321 322 321 322 326 330 333 335 337 339 340 342 342 340 339 340 339 340 341 339 336 338 344 346 345 347 352 353 353 358 356 349 351 354 350 357 5
226 228 225 221 220 221 225 230 232 232 227 218 211 207 207 208 210 211 211 212 214 214 215 217 216 217 218 218 218 219 224 236 252 267 281 292 299 303 306 308 309 310 310 310 311 312 314 316 318 319 319 321 325 330 334 335 335 337 339 340 340 337 335 336 338 338 339 339 336 335 339 344 344 344 349 351 350 355 357 350 351 354 346 346 358
228 232 226 218 217 223 228 228 228 230 225 217 210 207 207 209 210 211 210 210 212 213 215 216 216 217 217 216 217 219 226 240 256 270 285 294 298 302 305 307 309 308 307 307 308 309 312 314 314 316 317 320 324 329 332 333 333 334 336 337 335 333 333 334 336 338 339 339 337 333 335 341 342 340 344 349 349 351 356 354 352 351 343 336 340
226 223 215 215 224 229 228 227 228 229 223 214 210 208 208 210 211 212 211 211 212 214 215 216 217 216 216 215 216 219 228 243 258 271 285 294 298 302 306 306 306 305 304 303 305 307 309 309 310 312 315 318 323 328 330 330 330 330 332 333 332 331 332 333 335 338 340 340 338 334 333 337 339 338 340 346 347 348 352 356 353 349 343 333 331
218 214 216 225 233 231 229 232 232 227 218 212 209 209 210 212 213 213 213 212 213 215 215 217 217 215 215 214 215 222 232 243 256 270 284 294 299 303 304 302 301 301 299 300 302 303 304 305 307 310 313 317 322 326 327 326 326 327 328 330 330 330 330 332 334 337 340 342 340 334 331 332 336 338 339 341 344 347 351 353 352 349 346 336 331
223 223 227 232 233 232 235 238 234 226 216 211 211 211 212 214 215 214 214 214 215 216 216 217 216 214 214 213 215 225 233 241 255 269 282 292 298 300 298 296 296 296 295 295 297 299 299 302 305 308 311 316 320 322 322 321 321 323 325 327 328 327 329 331 332 335 340 345 340 331 328 329 334 339 339 338 341 346 349 350 350 350 350 347 345
227 229 232 235 237 238 237 234 228 221 214 212 213 213 214 215 216 215 216 216 216 217 217 217 215 214 213 214 218 225 232 241 253 265 277 286 291 292 291 291 291 290 289 290 292 294 296 299 302 305 308 313 316 316 316 316 317 320 321 323 324 325 327 330 332 333 338 344 339 328 326 328 332 338 340 338 338 340 342 349 352 350 351 354 358